Location: Castelnau
(43.6639°N, 0.8431°W)
Time: 18:57:46
(UTC+00:00)

ATLAS 2AS CENTAUR R/B - Pass Details

Date: 13 January 2026
Orbit: 1050 x 1161 km, 63.7° (Epoch: 10 February)

Event Time Altitude Azimuth Distance (km) Brightness Sun altitude
Exits shadow 06:54:02 - 323° (NW) 3,472 4.9 -7.5°
Reaches altitude 10° 06:55:41 10° 324° (NW) 2,874 4.4 -7.2°
Maximum altitude 07:02:28 88° 54° (NE) 1,056 2.8 -6.1°
Drops below altitude 10° 07:09:15 10° 145° (SE) 2,869 6.1 -4.9°
Sets 07:11:53 0° 145° (SE) 3,829 6.8 -4.5°
